Back to catalog

COSMOS 970 DEB

AliveLEO
NORAD 64986·DEBRIS·🇷🇺 Russia

Launched Dec 21, 1977 from Baikonur Cosmodrome

Loading…

Next Passes (next 24 hours)

TLE

FreshSource: Space-Track

Epoch: Sep 13, 2026, 09:47 UTC

1 64986U 77121CX  26256.40771100  .00000195  00000-0  30225-3 0  9992
2 64986  65.7752 246.6934 0099238   0.8200  73.1058 13.69881542628649

Track COSMOS 970 DEB in real time with AllMySat

Download on the App Store